Regional Weather Roundup
Issued by NWS

Home | Current Version | Previous Version | Graphics & Text | Print | Product List | Glossary On
Versions: 1 2 3 4 5 6 7 8 9 10 11 12 13 14 15 16 17 18 19 20 21 22 23 24 25 26 27 28 29 30 31 32 33 34 35 36 37 38 39 40 41 42 43 44 45 46 47 48 49 50
000
ASUS43 KBIS 272310
RWRND

NORTH DAKOTA REGIONAL WEATHER ROUNDUP
NATIONAL WEATHER SERVICE BISMARCK ND
500 PM CST FRI FEB 27 2015

NOTE: "FAIR" INDICATES FEW OR NO CLOUDS BELOW 12,000 FEET WITH NO
SIGNIFICANT WEATHER AND/OR OBSTRUCTIONS TO VISIBILITY.


NDZ001>003-009>011-017-280000-
NORTHWEST NORTH DAKOTA

CITY           SKY/WX    TMP DP  RH WIND       PRES   REMARKS
WILLISTON      MOSUNNY   26   4  38 SE10      30.05F WCI  16
MINOT          SUNNY     18   3  52 SE6       30.15F WCI  10
MINOT AFB      SUNNY     15   5  65 S7        30.16F WCI   5
$$

NDZ018>021-031>035-040>046-280000-
SOUTHWEST NORTH DAKOTA

CITY           SKY/WX    TMP DP  RH WIND       PRES   REMARKS
BISMARCK       SUNNY     20   5  52 SE14      30.21F WCI   7
DICKINSON      SUNNY     26   5  40 S20       30.02F WCI  12
GARRISON         N/A     18   6  59 S14       30.14F WCI   4
HETTINGER ARPT SUNNY     26   4  38 S15G28    30.04F WCI  14
$$

NDZ004>008-012>016-024-026-027-054-280000-
NORTHEAST NORTH DAKOTA

CITY           SKY/WX    TMP DP  RH WIND       PRES   REMARKS
GRAND FORKS    MOSUNNY   17   2  51 SW12      30.36F WCI   4
GRND FRKS AFB  FAIR      17   1  48 S10       30.35F WCI   5
DEVILS LAKE    SUNNY     12   0  57 SW12      30.27F WCI  -2
$$

NDZ022-023-025-028>030-036>039-047>053-280000-
SOUTHEAST NORTH DAKOTA

CITY           SKY/WX    TMP DP  RH WIND       PRES   REMARKS
FARGO          SUNNY     17   1  49 SW10      30.40F WCI   5
JAMESTOWN      SUNNY     15   1  53 S9        30.29F WCI   3
$$



USA.gov is the U.S. government's official web portal to all federal, state and local government web resources and services.